GW7317 Weather Reports


time (UTC)temp
C
wind
direction
speed
KPH
gust
KPH
rain 1hr
cm
rain 24hr
cm
rain mn
cm
humidity
%
barometer
mb
20260504222657 26 206 3.2 4.8 0.00 0.00 0.00 56 1011.7
20260504222154 26 153 6.4 9.7 0.00 0.00 0.00 55 1011.5
20260504221651 27 223 1.6 3.2 0.00 0.00 0.00 54 1011.7
20260504221148 26 221 1.6 3.2 0.00 0.00 0.00 54 1011.6
20260504220644 26 281 3.2 9.7 0.00 0.00 0.00 54 1011.8
20260504220143 27 236 0.0 6.4 0.00 0.00 0.00 54 1011.6
20260504215638 27 156 3.2 6.4 0.00 0.00 0.00 53 1011.7
20260504215136 27 207 0.0 3.2 0.00 0.00 0.00 53 1011.6
20260504214632 27 150 4.8 11.3 0.00 0.00 0.00 52 1011.9
20260504214128 27 177 0.0 1.6 0.00 0.00 0.00 53 1012.1
20260504213625 27 173 4.8 4.8 0.00 0.00 0.00 51 1011.8
20260504213122 27 236 3.2 6.4 0.00 0.00 0.00 51 1012.0
20260504212618 27 216 1.6 1.6 0.00 0.00 0.00 52 1012.0
20260504212115 27 166 4.8 6.4 0.00 0.00 0.00 50 1012.1
20260504211612 27 206 1.6 1.6 0.00 0.00 0.00 51 1012.3
20260504211109 27 148 0.0 4.8 0.00 0.00 0.00 50 1012.2
20260504210607 27 224 0.0 1.6 0.00 0.00 0.00 51 1012.5
20260504205601 27 115 0.0 1.6 0.00 0.00 0.00 51 1012.5
20260504205058 28 154 3.2 9.7 0.00 0.00 0.00 49 1012.5
20260504204556 28 188 1.6 4.8 0.00 0.00 0.00 48 1012.7
20260504204055 28 238 3.2 4.8 0.00 0.00 0.00 49 1012.6
20260504203553 28 182 1.6 3.2 0.00 0.00 0.00 49 1012.7
20260504203050 28 207 1.6 4.8 0.00 0.00 0.00 49 1012.8
20260504202545 28 131 4.8 4.8 0.00 0.00 0.00 48 1012.8
20260504202042 27 231 1.6 3.2 0.00 0.00 0.00 50 1013.2
20260504201539 27 208 1.6 3.2 0.00 0.00 0.00 50 1013.3
20260504201037 27 166 3.2 3.2 0.00 0.00 0.00 50 1013.2
20260504200532 28 205 4.8 9.7 0.00 0.00 0.00 47 1013.3
20260504200030 28 226 1.6 4.8 0.00 0.00 0.00 47 1013.6
20260504195526 28 216 1.6 3.2 0.00 0.00 0.00 48 1013.5
20260504195023 28 238 1.6 3.2 0.00 0.00 0.00 48 1013.7
20260504194519 27 141 1.6 1.6 0.00 0.00 0.00 50 1013.6
20260504194015 28 159 0.0 6.4 0.00 0.00 0.00 50 1013.7
20260504193512 28 194 0.0 3.2 0.00 0.00 0.00 50 1013.7
20260504193011 27 186 3.2 3.2 0.00 0.00 0.00 49 1013.8
20260504192508 27 189 1.6 11.3 0.00 0.00 0.00 48 1013.9
20260504192007 28 204 3.2 4.8 0.00 0.00 0.00 47 1013.9
20260504191504 28 165 3.2 1.6 0.00 0.00 0.00 48 1014.2
20260504190959 28 155 3.2 4.8 0.00 0.00 0.00 46 1014.2
20260504190455 27 239 3.2 4.8 0.00 0.00 0.00 50 1014.0
20260504185952 27 177 1.6 6.4 0.00 0.00 0.00 49 1014.4
20260504185449 27 230 1.6 6.4 0.00 0.00 0.00 51 1014.5
20260504184945 27 163 1.6 6.4 0.00 0.00 0.00 51 1014.6
20260504184441 27 149 1.6 1.6 0.00 0.00 0.00 51 1014.5
20260504183937 27 258 6.4 12.9 0.00 0.00 0.00 50 1014.6
20260504183434 27 221 1.6 6.4 0.00 0.00 0.00 49 1014.4
20260504182932 27 192 1.6 9.7 0.00 0.00 0.00 50 1014.7
20260504182429 27 260 1.6 4.8 0.00 0.00 0.00 49 1014.5
20260504181926 27 175 1.6 3.2 0.00 0.00 0.00 48 1014.6
20260504181423 28 210 3.2 4.8 0.00 0.00 0.00 46 1014.6
20260504180922 27 206 0.0 11.3 0.00 0.00 0.00 48 1014.7
20260504180420 28 124 3.2 9.7 0.00 0.00 0.00 45 1015.0
20260504175918 27 228 3.2 6.4 0.00 0.00 0.00 47 1015.1
20260504175415 27 232 3.2 4.8 0.00 0.00 0.00 47 1015.2
20260504174912 26 178 1.6 3.2 0.00 0.00 0.00 50 1015.1
20260504174410 26 146 3.2 4.8 0.00 0.00 0.00 50 1015.2
20260504173907 27 217 6.4 6.4 0.00 0.00 0.00 48 1015.0
20260504173403 27 214 1.6 4.8 0.00 0.00 0.00 50 1015.3
20260504172900 27 208 0.0 11.3 0.00 0.00 0.00 50 1015.4
20260504172357 27 207 3.2 9.7 0.00 0.00 0.00 49 1015.3
20260504171853 26 237 3.2 11.3 0.00 0.00 0.00 50 1015.5
20260504171350 26 207 3.2 4.8 0.00 0.00 0.00 51 1015.7
20260504170847 26 30 3.2 3.2 0.00 0.00 0.00 51 1015.7
20260504170344 26 249 0.0 4.8 0.00 0.00 0.00 52 1015.7
20260504160302 25 244 1.6 3.2 0.00 0.00 0.00 54 1016.5
20260504150728 24 225 1.6 4.8 0.00 0.00 0.00 55 1016.6
20260504150225 24 198 1.6 4.8 0.00 0.00 0.00 55 1016.9
20260504141154 23 211 0.0 1.6 0.00 0.00 0.00 53 1016.6
20260504140650 23 183 1.6 1.6 0.00 0.00 0.00 56 1016.7
20260504140146 23 191 0.0 1.6 0.00 0.00 0.00 54 1016.5
20260504130614 17 151 0.0 0.0 0.00 0.00 0.00 78 1016.7
20260504130111 17 151 0.0 0.0 0.00 0.00 0.00 80 1016.5
20260504110502 13 151 0.0 0.0 0.00 0.00 0.00 91 1016.3
20260504100424 13 151 0.0 0.0 0.00 0.00 0.00 90 1016.5
20260504081818 15 150 0.0 0.0 0.00 0.00 0.00 79 1016.9
20260504081314 15 150 0.0 0.0 0.00 0.00 0.00 79 1017.0
20260504080810 16 150 0.0 0.0 0.00 0.00 0.00 79 1017.1
20260504080307 16 150 0.0 0.0 0.00 0.00 0.00 77 1017.3
20260504070235 16 150 0.0 0.0 0.00 0.00 0.00 75 1018.3
20260504060155 16 216 0.0 0.0 0.00 0.00 0.00 71 1018.8
20260504050623 16 216 0.0 0.0 0.00 0.00 0.00 72 1018.9
20260504050120 16 216 0.0 0.0 0.00 0.00 0.00 70 1019.0
20260504045617 16 216 0.0 0.0 0.00 0.00 0.00 69 1018.9
20260504045112 17 216 0.0 0.0 0.00 0.00 0.00 69 1018.9
20260504044610 17 216 0.0 0.0 0.00 0.00 0.00 67 1019.1
20260504044107 17 216 0.0 0.0 0.00 0.00 0.00 67 1019.0
20260504043604 17 216 0.0 0.0 0.00 0.00 0.00 66 1019.2
20260504043101 17 216 0.0 0.0 0.00 0.00 0.00 65 1019.0
20260504042558 17 216 0.0 0.0 0.00 0.00 0.00 63 1019.1
20260504042055 18 216 0.0 0.0 0.00 0.00 0.00 62 1019.3
20260504041550 18 216 0.0 0.0 0.00 0.00 0.00 60 1019.2
20260504041047 18 216 0.0 0.0 0.00 0.00 0.00 60 1019.1
20260504040545 18 216 0.0 0.0 0.00 0.00 0.00 58 1019.2
20260504040041 18 216 0.0 0.0 0.00 0.00 0.00 59 1019.1
20260504035538 19 216 0.0 1.6 0.00 0.00 0.00 57 1019.4
20260504035034 19 220 0.0 1.6 0.00 0.00 0.00 56 1019.2
20260504034533 19 203 0.0 1.6 0.00 0.00 0.00 56 1019.1
20260504034028 19 206 1.6 3.2 0.00 0.00 0.00 55 1019.1
20260504033527 20 206 0.0 0.0 0.00 0.00 0.00 55 1019.4
20260504033024 20 206 0.0 0.0 0.00 0.00 0.00 55 1019.2
20260504032521 20 207 1.6 1.6 0.00 0.00 0.00 54 1019.5
20260504032018 20 204 0.0 0.0 0.00 0.00 0.00 54 1019.2
20260504031515 20 204 0.0 0.0 0.00 0.00 0.00 53 1019.1
20260504031011 20 204 0.0 0.0 0.00 0.00 0.00 54 1018.8
20260504030508 20 204 0.0 0.0 0.00 0.00 0.00 53 1018.9
20260504030004 20 203 0.0 0.0 0.00 0.00 0.00 52 1018.6
20260504025501 20 203 0.0 0.0 0.00 0.00 0.00 52 1018.7
20260504024957 20 203 0.0 0.0 0.00 0.00 0.00 50 1018.7
20260504024454 20 195 1.6 3.2 0.00 0.00 0.00 50 1018.9
20260504023952 21 185 0.0 1.6 0.00 0.00 0.00 49 1018.9
20260504023449 21 217 3.2 3.2 0.00 0.00 0.00 49 1018.9
20260504022944 21 202 1.6 1.6 0.00 0.00 0.00 48 1018.8
20260504022441 21 212 0.0 4.8 0.00 0.00 0.00 48 1018.8
20260504021937 21 198 1.6 1.6 0.00 0.00 0.00 48 1018.8
20260504021435 21 215 1.6 4.8 0.00 0.00 0.00 47 1018.7
20260504020932 21 57 0.0 3.2 0.00 0.00 0.00 47 1018.6
20260504020428 21 193 0.0 1.6 0.00 0.00 0.00 47 1018.4
20260504015925 21 211 1.6 3.2 0.00 0.00 0.00 46 1018.5
20260504015421 21 217 1.6 1.6 0.00 0.00 0.00 46 1018.4
20260504014917 21 201 0.0 1.6 0.00 0.00 0.00 46 1018.5
20260504014413 22 193 1.6 4.8 0.00 0.00 0.00 46 1018.3
20260504013910 22 166 1.6 1.6 0.00 0.00 0.00 45 1018.5
20260504013409 22 203 1.6 3.2 0.00 0.00 0.00 44 1018.3
20260504012904 21 214 0.0 4.8 0.00 0.00 0.00 47 1018.2
20260504012403 21 198 0.0 1.6 0.00 0.00 0.00 47 1018.3
20260504011900 22 198 0.0 3.2 0.00 0.00 0.00 46 1018.2
20260504011356 22 203 1.6 1.6 0.00 0.00 0.00 46 1017.8
20260504010852 22 204 0.0 3.2 0.00 0.00 0.00 45 1018.1
20260504010348 22 156 0.0 0.0 0.00 0.00 0.00 45 1018.1
20260504005845 22 155 0.0 0.0 0.00 0.00 0.00 44 1018.0
20260504005342 22 122 0.0 0.0 0.00 0.00 0.00 46 1018.1
20260504004839 23 179 0.0 0.0 0.00 0.00 0.00 43 1018.1
20260504004337 23 178 0.0 1.6 0.00 0.00 0.00 43 1018.2
20260504003833 23 220 0.0 3.2 0.00 0.00 0.00 40 1018.2
20260504003330 23 216 0.0 3.2 0.00 0.00 0.00 41 1018.4
20260504002827 23 186 0.0 1.6 0.00 0.00 0.00 41 1018.2
20260504002323 23 238 1.6 9.7 0.00 0.00 0.00 38 1018.3
20260504001821 24 156 0.0 1.6 0.00 0.00 0.00 38 1018.1
20260504001318 24 156 0.0 1.6 0.00 0.00 0.00 36 1018.0
20260504000815 25 197 0.0 0.0 0.00 0.00 0.00 35 1018.2
20260504000312 25 171 0.0 0.0 0.00 0.00 0.00 35 1018.1
20260503235810 25 171 0.0 1.6 0.00 0.00 0.00 35 1018.6
20260503235307 25 179 1.6 3.2 0.00 0.00 0.00 34 1018.2
20260503234805 25 165 0.0 1.6 0.00 0.00 0.00 34 1018.3
20260503234302 26 176 0.0 6.4 0.00 0.00 0.00 32 1018.0
20260503233800 26 218 1.6 1.6 0.00 0.00 0.00 33 1018.2
20260503233255 26 223 0.0 1.6 0.00 0.00 0.00 34 1018.2
20260503232752 26 225 0.0 1.6 0.00 0.00 0.00 34 1018.4
20260503232250 26 212 0.0 1.6 0.00 0.00 0.00 33 1018.3
20260503231748 26 198 0.0 0.0 0.00 0.00 0.00 34 1018.6
20260503231245 26 202 1.6 3.2 0.00 0.00 0.00 33 1018.6
20260503230740 26 222 0.0 0.0 0.00 0.00 0.00 32 1018.4
20260503230238 26 223 0.0 3.2 0.00 0.00 0.00 32 1018.3
20260503225735 26 168 0.0 1.6 0.00 0.00 0.00 32 1018.2
20260503225235 26 160 0.0 1.6 0.00 0.00 0.00 33 1018.4
20260503224732 26 217 1.6 3.2 0.00 0.00 0.00 32 1018.6
20260503224230 26 216 0.0 3.2 0.00 0.00 0.00 33 1018.7
20260503223727 26 213 0.0 1.6 0.00 0.00 0.00 31 1018.7
20260503223225 26 167 1.6 3.2 0.00 0.00 0.00 31 1018.6